Kezdőlap
METAR-TAF:

METAR-TAF

Repülőterek :

Scotts Seaplane Base

Crane Lake, Minnesota, Amerikai Egyesült Államok

földrajzi szélesség: 48-15-59N, földrajzi hosszúság: 092-29-01W, magasság: 341 m

Jelenlegi meteorológiai megfigyelések

A jelentés 31 perccel ezelõtt készült, 15:33 UTC
Szélcsend
Hőmérséklet 12°C
Páratartalom 94%
Légköri nyomás 1012 hPa
Látótávolság: 16.1 km

METAR: KCDD 201533Z AUTO 00000KT 10SM 12/11 A2989 RMK AO2

Idő: 11:04 (16:04 UTC)


TAF: hiányzik

Meteorológiai megfigyelések és előrejelzések több, mint 4000 repülőtéren (METAR és TAF jelentéseket).

A térképen piros és sárga pontok jelzik az elérhető meteorológiai állomásokat.

Mozgassa az egeret a pont fölött, hogy megjelenjen az állomás neve.

Azután kattintson az időjárási megfigyelések és előrejelzések megtekintéséhez.

A térkép megváltoztatása: kattintson a fekete keresztel jelölt zöld gombra ráközelítéshez, a vonallal jelölt zöld gombra távolításhoz, vagy a zöld nyilakra a szomszédos térképek eléréséhez.


METAR-TAF: